LDPE-2

Last updated on Thu Aug 13 2026 00:03:03 GMT+0000 (Coordinated Universal Time)

1 54219U 22144A 26224.59851652 -.00000035 00000+0 00000+0 0 9998 2 54219 5.7316 63.0695 0001469 99.1912 202.5379 0.99591095 12407
UTC large
Height (km)
Speed (km/s)
/
Latitude / Longitude
Inclination (degrees)
Orbital Period (minutes)
Azimuth
Elevation
Range (km)
Doppler Factor

Next 0 passes for location: London (51.5072 / 0.1276)

No passes found over London.
LDPE-2